RH
27 24 20 18 18 20 21 20 17 12 10 10 9 14 16 21 19 8 10 8 10 17 24 26 28 23 26 27 28 29 15 14 35 44 61 53 65 66 71 66 54 54 61
26 21 19 19 20 20 19 20 17 12 10 11 12 10 9 11 11 9 8 8 19 17 20 28 28 26 41 40 40 41 37 28 54 48 59 57 54 62 81 83 93 94 76
29 24 19 19 18 18 16 15 13 11 11 12 11 10 8 8 10 9 8 8 8 14 20 20 32 47 38 41 41 40 47 52 57 61 72 80 76 72 71 88 96 97 97
25 20 17 15 12 10 9 9 10 10 10 11 10 10 10 9 8 7 7 7 7 8 8 19 21 27 29 37 37 37 32 42 54 70 74 83 73 85 82 91 94 93 97
15 14 12 11 10 9 9 9 10 10 10 10 10 10 8 7 7 8 10 10 9 9 12 13 11 10 13 26 30 38 34 38 31 59 78 84 87 86 95 93 99 97 95
16 14 12 11 13 14 10 9 9 9 9 9 8 8 9 12 14 14 14 12 11 11 11 11 17 19 18 17 22 22 29 30 34 39 52 64 82 88 80 100 100 98 98
31 18 16 16 15 18 14 10 9 9 9 8 9 13 16 17 17 14 11 9 8 9 10 12 15 20 26 33 36 29 24 38 34 38 36 52 78 84 85 81 96 98 97
40 29 21 21 18 13 11 10 9 8 9 13 16 19 19 14 10 8 8 9 11 12 14 17 22 26 23 17 20 28 49 63 60 51 56 52 54 72 80 96 97 95 92
20 17 14 13 12 11 10 10 10 12 16 19 18 12 10 9 8 9 10 11 11 12 11 7 10 10 11 20 27 29 27 27 67 78 76 69 67 61 59 82 86 73 64
24 15 13 12 11 11 11 12 16 19 17 12 11 10 8 9 9 10 9 9 8 7 7 8 10 11 15 26 26 19 26 44 36 56 98 97 88 70 60 82 85 76 64
18 16 14 13 12 13 17 19 17 13 12 11 9 9 11 11 12 10 8 7 8 8 10 8 10 22 36 48 50 45 60 49 43 34 52 100 100 99 82 76 85 83 76
22 18 18 20 21 19 16 14 12 11 10 9 12 13 12 14 10 7 9 10 10 8 8 13 16 28 40 38 53 61 79 76 60 53 55 47 52 100 99 87 86 85 76
26 24 22 18 16 14 12 11 10 12 16 16 13 14 15 8 7 6 6 8 12 14 13 14 17 23 30 34 51 65 85 73 76 77 97 87 84 100 99 96 79 71 58
22 19 17 15 13 11 11 15 20 21 19 17 18 19 12 10 7 8 10 11 13 14 15 25 16 17 29 45 65 66 76 69 91 100 93 99 85 100 98 97 80 56 44
19 17 14 13 13 14 26 29 28 24 20 21 22 20 15 13 10 11 11 11 15 19 18 26 22 18 35 37 47 60 58 60 84 83 100 83 89 100 100 99 95 81 66
18 17 17 22 31 40 38 34 30 27 26 24 23 23 19 14 12 15 14 18 21 26 26 29 29 29 36 40 45 67 84 62 60 92 100 100 100 100 100 100 98 90 99
23 30 40 47 45 36 28 22 23 30 28 26 29 27 22 18 19 21 19 27 27 28 32 34 37 44 42 51 56 49 68 77 97 100 100 99 99 98 94 80 83 93 91
61 58 40 25 22 21 21 21 26 28 32 33 33 33 34 29 30 29 29 32 32 36 34 33 42 50 56 60 65 70 68 78 97 98 100 96 100 100 99 99 98 96 94
55 32 28 24 20 20 27 36 43 44 43 42 40 39 40 42 40 38 37 37 34 28 28 31 34 39 44 46 52 68 75 80 94 99 97 100 100 93 78 60 45 33 25
39 36 31 24 25 23 22 24 27 36 44 49 52 51 48 49 47 44 46 32 28 32 35 39 40 42 45 44 43 44 47 58 66 62 56 45 37 34 31 30 29 26 22
43 39 34 33 36 34 30 28 26 37 51 56 59 61 57 56 56 58 36 33 37 37 36 40 41 43 44 44 42 42 43 44 43 39 34 33 34 34 32 28 26 26 25
54 47 38 42 43 41 39 35 36 41 49 58 71 74 68 60 59 37 41 42 38 37 38 41 42 43 43 41 40 41 41 40 37 35 35 35 34 34 33 32 32 30 30
41 40 40 44 45 48 46 48 50 52 50 54 69 73 62 45 41 49 46 42 41 43 43 44 45 43 42 40 37 36 35 35 36 37 39 40 40 40 39 38 38 40 37
38 34 34 39 44 49 53 59 61 57 63 68 72 63 48 52 57 51 48 47 45 44 47 47 44 42 40 38 36 36 38 39 40 41 42 43 42 42 43 44 45 44 39
48 43 42 44 43 44 54 63 65 60 66 78 76 53 56 66 66 64 55 54 54 53 52 47 45 44 43 42 43 43 42 43 43 43 43 43 43 44 45 46 48 48 45
57 47 42 43 47 49 54 64 69 70 72 77 82 63 65 74 82 84 76 70 65 63 61 56 50 50 49 51 54 52 52 52 50 49 49 48 47 46 48 50 50 50 52
Wind_Speed
42 43 42 39 38 38 39 38 38 37 37 37 38 38 36 38 39 40 41 41 41 41 43 43 44 45 45 45 46 47 47 47 48 48 47 46 45 43 40 38 37 36 37
43 43 40 40 42 41 40 38 38 38 38 37 39 41 37 36 40 43 42 42 45 45 46 46 46 48 48 48 48 49 49 50 49 50 51 50 49 45 44 43 42 41 39
41 41 40 42 41 41 40 38 38 37 37 37 38 40 42 38 38 42 44 45 47 47 49 50 49 49 51 50 51 51 52 52 51 52 51 51 49 48 47 45 46 45 42
39 37 39 40 40 38 36 35 36 37 36 37 39 40 42 43 41 40 43 45 47 49 52 52 54 55 55 55 55 55 54 54 53 54 52 55 54 52 50 47 47 47 45
32 32 33 33 33 33 32 34 34 34 35 37 39 40 41 42 42 42 43 45 47 48 49 52 56 57 59 57 59 59 60 58 58 56 55 55 56 56 53 52 49 48 48
31 31 32 31 31 32 33 34 35 36 37 38 38 39 39 40 41 42 44 45 46 47 48 49 51 54 57 59 61 63 63 64 63 60 56 57 58 57 57 55 54 52 53
33 32 32 32 33 36 37 37 37 38 38 38 38 38 38 40 42 42 42 42 43 44 47 48 51 56 59 62 64 66 67 66 67 65 62 59 58 59 58 58 56 55 56
37 37 35 35 35 36 38 38 38 37 37 37 38 39 40 38 36 38 39 40 41 45 49 53 56 58 58 60 66 68 70 70 69 68 65 63 61 58 57 57 58 57 53
32 34 35 36 37 37 38 37 36 35 36 38 38 36 35 35 35 35 36 40 44 48 50 51 49 56 60 65 68 68 67 68 67 67 66 66 64 61 58 56 57 58 59
35 36 37 37 37 37 36 35 35 35 36 34 33 33 33 31 32 33 38 43 46 44 46 52 54 59 64 59 61 63 61 61 64 64 63 65 63 62 61 55 57 56 54
35 36 36 36 36 35 34 34 34 33 32 32 31 31 30 30 32 37 39 41 43 46 49 50 57 61 55 62 58 59 59 58 55 56 59 60 58 58 57 58 58 55 54
33 32 32 32 32 32 31 31 31 31 30 30 30 29 29 31 34 32 37 40 40 39 44 47 54 56 56 58 50 49 50 50 46 47 46 50 55 56 55 57 56 55 52
30 29 29 29 29 29 28 28 29 29 29 27 27 26 27 27 30 30 29 31 33 34 36 42 48 47 46 47 50 47 42 44 48 46 44 47 47 47 50 53 53 53 54
27 26 25 25 26 26 27 27 27 27 27 27 26 28 25 25 26 24 27 26 28 29 34 38 39 38 45 44 45 42 37 39 36 34 40 45 46 45 43 46 47 49 49
25 24 24 25 26 27 26 26 27 28 27 27 27 27 27 25 27 28 29 29 29 32 35 36 38 37 37 32 36 35 36 26 25 31 28 36 41 41 39 38 41 42 45
23 23 23 25 26 28 30 30 31 31 29 29 31 31 29 27 29 27 28 29 31 31 32 31 31 30 29 27 26 27 29 22 23 26 23 22 27 22 34 32 33 36 37
23 24 25 25 27 29 30 32 31 30 28 29 28 28 28 29 28 28 30 29 29 29 29 28 27 27 25 27 26 25 20 25 23 22 16 10 9 15 23 28 29 29 33
21 22 22 21 19 18 18 20 22 25 26 26 27 25 26 29 28 27 25 28 27 27 26 25 25 26 23 23 21 20 18 16 17 17 15 20 22 18 18 20 27 28 33
20 19 16 16 15 15 17 18 18 20 22 24 25 26 24 23 21 22 24 25 23 23 25 26 26 26 24 22 20 17 16 17 17 15 14 16 17 15 15 16 19 22 26
17 16 15 14 11 13 13 13 16 20 22 23 24 23 22 22 23 23 23 22 23 25 26 26 25 25 25 24 22 19 18 17 16 15 14 15 16 17 18 20 24 27 31
16 16 14 12 14 14 13 14 16 18 20 21 22 21 22 23 22 21 20 22 23 25 26 25 25 25 25 24 23 21 18 17 16 16 17 19 20 22 24 26 29 32 35
17 16 17 16 16 15 14 15 17 18 19 20 20 21 20 19 19 19 20 21 21 23 24 23 24 24 23 22 22 21 20 20 21 22 22 24 26 28 30 33 35 37 39
18 18 19 20 18 17 16 17 18 20 21 21 20 19 19 19 19 19 19 19 20 22 22 22 22 22 22 22 21 21 21 23 24 25 27 29 30 32 34 35 37 40 42
17 16 19 20 19 18 19 19 20 20 21 21 20 20 20 19 18 18 18 19 19 20 21 22 22 22 22 22 23 23 24 26 27 29 30 32 34 37 38 40 42 42 44
14 14 17 16 17 18 19 20 20 19 21 22 21 20 19 19 19 20 20 21 20 21 22 22 23 23 24 25 25 26 27 28 30 32 34 36 38 40 41 42 42 43 46
13 12 14 16 17 18 18 20 22 23 22 21 22 22 22 23 23 22 22 23 24 24 24 25 25 26 27 27 28 29 31 31 33 35 37 39 41 42 43 43 43 45 48
Wind_Direction
242 241 241 246 251 253 254 258 261 262 265 269 270 272 275 278 282 282 285 288 288 286 285 283 283 284 283 282 281 280 281 280 278 277 278 278 278 279 277 276 274 275 275
245 245 246 247 247 251 257 259 259 259 261 264 268 273 273 274 278 283 284 283 284 283 283 282 282 280 279 280 278 278 279 280 279 278 277 276 275 278 277 274 274 269 270
248 249 249 250 252 254 254 253 256 258 261 265 269 273 276 276 274 277 279 281 283 284 283 283 280 279 279 277 277 277 278 278 276 277 277 278 278 276 275 275 272 274 271
248 248 247 248 249 251 252 252 253 256 262 266 269 271 275 279 277 274 277 279 279 279 281 281 281 282 281 280 278 276 274 272 272 273 274 275 274 274 273 273 274 272 275
243 245 246 248 250 253 257 258 260 263 265 267 269 271 273 275 278 279 278 279 278 276 276 278 280 280 281 282 281 278 277 272 269 269 270 272 272 272 273 272 271 271 273
248 249 250 251 254 260 262 264 266 266 265 267 268 270 272 274 276 277 278 279 279 281 281 281 282 283 282 281 279 279 278 277 274 270 268 270 271 271 269 271 271 268 272
250 251 252 255 258 261 262 263 264 265 268 269 270 271 273 276 279 281 281 282 284 285 286 286 285 284 282 281 278 276 274 273 273 271 268 265 266 267 268 268 270 270 270
246 250 253 255 256 257 259 261 262 265 266 267 269 273 277 278 279 280 283 285 287 289 288 285 285 286 289 293 287 281 276 272 270 267 266 264 263 262 264 266 268 270 270
248 251 252 254 255 256 259 261 262 264 266 269 273 274 275 277 281 283 286 288 288 289 290 297 294 295 296 295 289 281 277 271 267 266 264 263 261 259 260 261 263 264 265
249 251 252 253 255 256 258 260 262 265 268 269 270 274 278 280 284 287 289 291 292 296 297 300 298 298 297 300 292 283 279 275 271 266 262 260 260 258 256 257 261 263 265
248 248 249 250 252 255 258 261 263 265 267 269 273 275 279 282 287 291 293 296 297 297 300 303 302 306 301 311 297 286 281 277 271 267 263 260 258 256 255 256 258 260 262
246 246 247 251 254 256 259 262 263 266 269 270 272 276 281 284 288 292 299 302 302 303 304 307 307 312 309 311 301 292 286 279 274 270 267 264 260 260 251 253 257 259 259
246 247 248 251 254 257 259 261 264 265 267 270 275 277 279 284 294 304 304 302 304 303 308 309 315 314 314 317 312 312 292 285 275 269 273 270 258 256 260 253 257 259 261
248 249 252 255 257 258 256 256 260 265 270 271 271 276 272 289 298 295 297 302 302 308 313 314 320 322 319 317 324 320 312 298 283 273 276 269 255 256 253 257 256 260 265
250 251 253 255 255 256 260 263 263 264 267 270 274 281 274 276 290 297 301 297 306 314 311 319 327 326 326 328 333 328 324 329 296 279 280 273 263 263 248 251 255 260 263
253 255 255 257 259 261 261 263 265 266 270 274 278 280 271 278 283 292 297 308 309 307 312 319 324 333 335 328 333 327 336 337 307 302 285 278 273 256 251 247 255 258 268
252 254 255 260 262 264 265 265 266 267 271 279 277 276 268 276 287 288 293 307 307 307 314 321 321 324 327 338 341 340 321 341 341 343 321 280 287 297 276 262 260 266 271
249 254 259 260 264 266 275 278 274 272 273 281 280 274 280 279 286 289 294 310 310 309 311 318 325 329 331 335 329 336 335 338 334 342 311 316 314 304 308 284 279 273 279
249 251 254 261 267 273 276 277 279 281 280 279 282 281 278 280 285 282 300 309 305 308 312 317 320 325 331 333 339 336 330 325 327 327 313 305 305 318 315 311 305 298 296
251 251 254 259 273 279 282 293 292 285 285 282 277 281 284 284 280 288 301 299 301 308 312 316 319 320 323 327 330 332 329 325 323 319 321 321 319 317 314 309 304 301 300
250 253 257 264 268 273 289 299 299 296 294 291 283 280 283 279 282 289 290 296 303 308 312 316 317 319 321 323 325 326 326 324 321 319 317 317 314 312 308 306 307 306 308
252 250 253 258 265 273 284 292 296 300 296 295 289 285 287 289 284 286 291 297 305 309 311 313 315 316 319 320 320 318 318 318 318 316 315 314 313 312 310 309 309 310 310
253 255 257 260 264 271 276 281 287 293 297 295 289 289 289 285 285 289 295 303 309 310 309 311 311 312 314 315 315 312 313 314 315 315 314 311 310 310 309 309 309 309 309
251 257 262 264 269 272 275 280 284 290 292 294 290 287 285 282 285 292 298 301 309 311 310 310 308 309 308 312 312 311 310 311 312 312 312 311 312 311 311 310 310 310 311
250 259 263 265 268 275 277 279 285 289 291 290 286 281 279 282 289 294 297 299 303 309 314 313 308 308 308 309 310 310 311 311 311 312 314 313 312 312 311 311 310 310 311
253 264 273 274 275 279 281 282 284 286 292 291 281 275 273 275 281 287 294 300 302 302 308 313 310 308 308 309 309 310 310 312 313 313 313 313 313 313 312 311 311 312 311